C/2020 A3 ( ATLAS )

Japanese version
Home page
Updated on May 3, 2020

---------------------------------------------------------------------

* Profile

Discovery Date January 3, 2020
Magnitude 19.8 mag
Discoverer Asteroid Terrestrial-Impact Last Alert System (ATLAS) search program

* Orbital Elements

Epoch 2019 July 16.0 TT = JDT 2458680.5
T 2019 June 29.30613 TT                                 Rudenko
q   5.7684022            (2000.0)            P               Q
z  +0.0000653      Peri.  268.44953     -0.70393586     -0.53106687
 +/-0.0000715      Node   120.78552     -0.19537960     +0.78319929
e   0.9996235      Incl.  146.70174     -0.68286244     +0.32336798
From 61 observations 2020 Jan. 3-Mar. 28, mean residual 0".6.

* Magnitudes Graph

        m1 = 7.0 + 5 log d + 10.0 log r

---------------------------------------------------------------------

The orbital elements are published on M.P.E.C. 2020-H235.
The magnitudes graphs are made with Comet for Windows.

---------------------------------------------------------------------

Copyright(C) Seiichi Yoshida (comet@aerith.net). All rights reserved.